Weather History for KTBN - August, 2014

Change the Weather History Date:

Sunday, August 10, 2014

  Actual Average Record
Temperature  
Mean Temperature 77 °F -  
Max Temperature 86 °F 83 °F 98 °F (2007)
Min Temperature 68 °F 66 °F 60 °F (2012)
Cooling Degree Days 12    
Growing Degree Days 27 (Base 50)    
Moisture  
Dew Point 70 °F    
Average Humidity 90    
Maximum Humidity 100    
Minimum Humidity 59    
Precipitation  
Precipitation 0.93 in - - ()
Sea Level Pressure  
Sea Level Pressure 30.01 in    
Wind  
Wind Speed 3 mph (SE)    
Max Wind Speed 20 mph    
Max Gust Speed 38 mph    
Visibility 5 miles    
Events Fog , Rain , Thunderstorm    
Averages and records for this station are not official NWS values.
T = Trace of Precipitation, MM = Missing Value Source: NWS Daily Summary

Daily Weather History Graph

Daily Weather History Graph

Search for Another Location

Airport or City:

Trip Planner

Search our weather history database for the weather conditions in past years. The results will help you decide how hot, cold, wet, or windy it might be!

Date:

Astronomy

Aug. 10, 2014 Rise Set
Actual Time 6:19 AM CDT 8:07 PM CDT
Civil Twilight 5:51 AM CDT 8:35 PM CDT
Nautical Twilight 5:17 AM CDT 9:09 PM CDT
Astronomical Twilight 4:40 AM CDT 9:46 PM CDT
Moon 7:56 PM CDT (8/10) 6:11 AM CDT (8/10)
Length of Visible Light 14h 44m
Length of Day
13h 47m
Full, 100% of the Moon is Illuminated
Aug 10
Full
Aug 10
Full
Aug 17
Last Quarter
Aug 25
New
Sep 2
First Quarter

Hourly Weather History & Observations

Time (CDT) Temp. Heat Index Dew Point Humidity Pressure Visibility Wind Dir Wind Speed Gust Speed Precip Events Conditions
12:58 AM 72.3 °F - 71.8 °F 98% 29.99 in 10.0 mi East 2.3 mph - N/A   Overcast
1:58 AM 70.7 °F - 70.7 °F 100% 29.99 in 10.0 mi Calm Calm - N/A   Mostly Cloudy
2:58 AM 69.8 °F - 69.8 °F 100% 30.00 in 10.0 mi Calm Calm - N/A   Mostly Cloudy
3:18 AM 69.8 °F - 69.8 °F 100% 30.01 in 2.0 mi Calm Calm - N/A   Partly Cloudy
3:23 AM 68.0 °F - 68.0 °F 100% 30.01 in 1.8 mi Calm Calm - N/A   Scattered Clouds
3:28 AM 68.0 °F - 68.0 °F 100% 30.01 in 5.0 mi SSE 2.3 mph - N/A   Mostly Cloudy
3:58 AM 69.1 °F - 69.1 °F 100% 29.99 in 10.0 mi South 2.3 mph - N/A   Mostly Cloudy
4:58 AM 69.3 °F - 69.3 °F 100% 29.99 in 10.0 mi Calm Calm - N/A   Partly Cloudy
5:08 AM 68.0 °F - 68.0 °F 100% 30.01 in 1.5 mi Calm Calm - N/A   Partly Cloudy
5:13 AM 68.0 °F - 68.0 °F 100% 30.01 in 1.0 mi SSE 1.2 mph - N/A   Partly Cloudy
5:18 AM 68.0 °F - 68.0 °F 100% 30.01 in 2.5 mi SE 2.3 mph - N/A   Clear
5:23 AM 68.0 °F - 68.0 °F 100% 30.01 in 8.0 mi SE 2.3 mph - N/A   Clear
5:28 AM 68.0 °F - 68.0 °F 100% 30.01 in 2.5 mi SE 2.3 mph - N/A   Clear
5:33 AM 68.0 °F - 68.0 °F 100% 30.01 in 0.8 mi ESE 2.3 mph - N/A   Clear
5:48 AM 68.0 °F - 68.0 °F 100% 30.01 in 0.5 mi SE 2.3 mph - N/A Fog Fog
5:58 AM 68.0 °F - 68.0 °F 100% 30.00 in 0.2 mi SE 1.2 mph - N/A Fog Fog
6:08 AM 68.0 °F - 68.0 °F 100% 30.02 in 0.5 mi Calm Calm - N/A Fog Fog
6:13 AM 68.0 °F - 68.0 °F 100% 30.02 in 0.5 mi East 1.2 mph - N/A Fog Fog
6:23 AM 68.0 °F - 68.0 °F 100% 30.02 in 1.8 mi Calm Calm - N/A   Mostly Cloudy
6:28 AM 68.0 °F - 68.0 °F 100% 30.03 in 7.0 mi East 1.2 mph - N/A   Overcast
6:58 AM 68.7 °F - 68.7 °F 100% 30.01 in 10.0 mi SSE 2.3 mph - N/A   Mostly Cloudy
7:58 AM 72.9 °F - 72.9 °F 100% 30.01 in 10.0 mi ESE 3.5 mph - N/A   Clear
8:58 AM 75.6 °F - 71.8 °F 88% 30.01 in 10.0 mi Variable 1.2 mph - N/A   Clear
9:58 AM 81.5 °F 85.3 °F 70.3 °F 69% 30.00 in 10.0 mi East 3.5 mph - N/A   Clear
10:58 AM 81.7 °F 85.8 °F 71.1 °F 70% 30.01 in 10.0 mi Calm Calm - N/A   Mostly Cloudy
11:58 AM 82.0 °F 86.7 °F 71.6 °F 71% 30.03 in 10.0 mi SW 4.6 mph - N/A   Scattered Clouds
12:58 PM 83.8 °F 88.9 °F 71.2 °F 66% 30.01 in 10.0 mi East 3.5 mph - N/A   Mostly Cloudy
1:58 PM 84.6 °F 89.7 °F 71.1 °F 64% 29.99 in 10.0 mi ESE 5.8 mph - N/A   Mostly Cloudy
2:58 PM 86.4 °F 91.4 °F 70.7 °F 59% 29.96 in 10.0 mi ESE 6.9 mph - N/A   Scattered Clouds
3:37 PM 86.0 °F 91.8 °F 71.6 °F 62% 29.97 in 10.0 mi East 8.1 mph - N/A Thunderstorm Thunderstorm
3:43 PM 84.2 °F 89.6 °F 71.6 °F 66% 30.02 in 3.0 mi NW 17.3 mph 20.7 mph N/A Rain , Thunderstorm Thunderstorms and Rain
3:47 PM 82.4 °F 89.5 °F 75.2 °F 79% 30.03 in 0.2 mi WNW 19.6 mph 38.0 mph N/A Rain , Thunderstorm Heavy Thunderstorms and Rain
3:49 PM 80.6 °F 86.2 °F 75.2 °F 84% 30.03 in 0.2 mi WSW 17.3 mph 38.0 mph N/A Rain , Thunderstorm Heavy Thunderstorms and Rain
3:50 PM 78.8 °F - 73.4 °F 83% 30.03 in 0.2 mi South 15.0 mph 38.0 mph N/A Rain , Thunderstorm Heavy Thunderstorms and Rain
3:55 PM 75.2 °F - 71.6 °F 89% 30.01 in 0.2 mi WNW 2.3 mph 36.8 mph N/A Fog , Rain , Thunderstorm Heavy Thunderstorms and Rain
3:58 PM 73.4 °F - 71.6 °F 94% 29.99 in 0.2 mi Variable 3.5 mph 31.1 mph 0.93 in Fog , Rain , Thunderstorm Heavy Thunderstorms and Rain
4:03 PM 73.4 °F - 71.6 °F 94% 29.99 in 0.5 mi NNE 5.8 mph - N/A Fog , Rain , Thunderstorm Light Thunderstorms and Rain